Location: Tel Aviv
(32.0670°N, 34.7670°E)
Time: 20:56:26
(UTC+03:00)

Transit 2A - Pass Details

Date: 06 June 2024
Orbit: 593 x 959 km, 66.7° (Epoch: 14 June)

Event Time Altitude Azimuth Distance (km) Brightness Sun altitude
Rises 04:30:39 0° 341° (NNW) 3,521 9.7 -12.3°
Reaches altitude 10° 04:33:14 10° 347° (NNW) 2,616 9.1 -11.8°
Maximum altitude 04:39:10 48° 61° (ENE) 1,228 7.6 -10.8°
Drops below altitude 10° 04:45:15 10° 134° (SE) 2,681 9.0 -9.8°
Sets 04:47:54 0° 140° (SE) 3,615 9.6 -9.3°
